Location: North Wawona
(37.5477°N, 119.6446°W)
Time: 03:02:31
(UTC+00:00)

Cosmos 2219 Rocket - Pass Details

Date: 03 August 2024
Orbit: 826 x 846 km, 71.0° (Epoch: 13 September)

Event Time Altitude Azimuth Distance (km) Brightness Sun altitude
Exits shadow 12:12:09 - 270° (W) 2,605 4.2 -10.1°
Reaches altitude 10° 12:12:51 10° 275° (W) 2,460 4.1 -10.0°
Maximum altitude 12:15:55 15° 309° (NW) 2,148 4.1 -9.5°
Drops below altitude 10° 12:19:01 10° 342° (NNW) 2,472 4.8 -9.0°
Sets 12:22:41 0° 6° (N) 3,414 5.9 -8.3°
